User: anonymous   Login
Location: Maiden_LMO
(35.5760°N, 81.2120°W)
Time: 18:57:44
(UTC-05:00)
Language:

Cosmos 2278 Rocket - Orbit

View from above orbital plane
View from above orbital plane
View from above satellite
View from above satellite

Ground track
Ground track

The orbit data is extracted from the following two-line orbital elements,

1 23088U 94023B   18048.63492503 -.00000282 +00000-0 -12191-3 0  9993
2 23088 071.0002 126.8987 0000828 081.6297 278.4919 14.14663145230252
Epoch (UTC): 17 February 2018 15:14:17
Eccentricity: 0.0000828
inclination: 71.0002°
perigee height: 843 km
apogee height: 844 km
right ascension of ascending node: 126.8987°
argument of perigee: 81.6297°
revolutions per day: 14.14663145
mean anomaly at epoch: 278.4919°
orbit number at epoch: 23025

The dashed part of the orbit path shows where the satellite is in the earth's shadow,  

DLR